www.pogodaiklimat.ru

Погода и климат >> Архив погоды >> Тунис >> Меденин


ПОГОДА в Меденине

  • Прогноз погоды в Меденине
  • Монитор погоды в Меденине

АРХИВ ПОГОДЫ в Меденине

Время (UTC), дата Ветер
(напр.,м/с)
 
Видим.   Явления Облачность Т
(С)
Тd
(С)
f
(%)
Тe
(С)
Тes
(С)
Комфортность P
(гПа)
Po
(гПа)
Тmin
(С)
Tmax
(С)
R
(мм)
R24
(мм)
S
(см)
03 12.09 штиль 0
{5}
н/о н/о +24.0 +20.9 83 +30 +30 очень
душно
1016.9 1003.6
06 12.09 штиль 0 8000 м 9/4 1000 м
[Sc Ac cast Ci sp]
+24.1 +21.2 84 +30 +31 очень
душно
1018.1 1004.8 +23.8 1
09 12.09 В 4 8000 м 9/4 800 м
[Cu med, cong Ac cast Ci sp]
+27.9 +22.8 74 +37 +40 очень
душно
1020.6 1007.4
12 12.09 В 3 8000 м 9/0
[Ac cast Ci sp]
+31.1 +22.4 60 +40 +48 очень
душно
1019.8 1006.8
15 12.09 В 5 8000 м 8/0
[Ac cast Ci sp]
+30.1 +22.0 62 +39 +41 очень
душно
1019.6 1006.5
18 12.09 В 3 10 км 9/5 800 м
[Cu med, cong Ac cast Ci sp]
+27.4 +23.2 78 +37 +37 очень
душно
1021.3 1008.1 +31.3
06 13.09 СВ 2 6000 м 6/6 600 м
[Cu med, cong]
+24.7 +22.6 88 +32 +33 очень
душно
1022.5 1009.1 +24.4
09 13.09 В 3 10 км 5/4 800 м
[Cu med, cong Ci sp]
+29.7 +21.6 62 +38 +43 очень
душно
1023.1 1010.0
12 13.09 В 4 10 км 5/4 800 м
[Cu med, cong Ci sp]
+31.7 +20.3 51 +38 +44 очень
душно
1022.4 1009.3
15 13.09 В 4 8000 м 4/4
[Cu med, cong]
+31.0 +20.3 53 +38 +40 очень
душно
1021.6 1008.5
18 13.09 В 4 10 км 6/0
[Ci sp]
+27.5 +20.3 65 +34 +34 очень
душно
1022.1 1008.9 +32.3
06 14.09 штиль 0 10 км 4/3 1000 м
[Sc Ac cast]
+23.0 +20.9 88 +30 +31 очень
душно
1022.2 1008.8 +22.8 +27.3
09 14.09 ЮВ 4 10 км ясно +28.1 +18.5 56 +33 +41 очень
душно
1022.9 1009.7
12 14.09 В 3 10 км ясно +32.0 +14.2 34 +34 +46 душно 1021.9 1008.8
15 14.09 В 5-9
{10}
н/о н/о +31.2 +16.0 40 +34 +34 душно 1020.6 1007.5
18 14.09 В 4-8
{10}
н/о н/о +26.9 +17.4 56 +31 +31 душно 1021.2 1007.9 +32.8
21 14.09 штиль 0
{7}
н/о н/о +24.8 +18.7 69 +30 +30 душно 1022.8 1009.4
00 15.09 ЮЗ 1-2
{7}
н/о н/о +22.9 +18.2 75 +29 +29 очень
душно
1021.7 1008.2
03 15.09 Ю 2-3
{3}
н/о н/о +21.9 +17.7 77 +26 +26 душно 1021.4 1007.9
06 15.09 ЮЗ 1 25 км ясно +21.7 +17.5 77 +26 +27 душно 1022.1 1008.6 +20.9
09 15.09 ЮВ 2 25 км 4/4 800 м
[Cu med, cong]
+27.4 +16.4 51 +31 +37 душно 1024.1 1010.8
12 15.09 ЮВ 3 25 км 4/4 800 м
[Cu med, cong]
+30.1 +14.6 39 +32 +40 жарко 1021.6 1008.4
15 15.09 В 4 25 км ясно +31.0 +15.0 38 +33 +37 душно 1019.6 1006.5
18 15.09 В 4 25 км ясно +26.6 +16.5 54 +30 +30 душно 1019.9 1006.6 +31.3
21 15.09 ЮВ 1-3
{8}
н/о н/о +24.0 +18.0 69 +28 +28 душно 1020.9 1007.5
00 16.09 Ю 2-3
{8}
н/о н/о +22.4 +16.9 71 +27 +27 душно 1020.0 1006.5
03 16.09 ЮЗ 1-2
{3}
н/о н/о +21.4 +15.9 71 +25 +25 комфорт 1019.1 1005.6
06 16.09 Ю 1 8000 м 4/0
[Ci sp]
+21.5 +15.1 67 +25 +25 комфорт 1019.2 1005.7 +21.0
09 16.09 Ю 2 8000 м 4/0
[Ci sp]
+28.2 +15.1 45 +31 +41 душно 1019.8 1006.6
12 16.09 штиль 0 10 км 3/0
[Ci sp]
+32.8 +12.4 29 +33 +53 опасность
солнечного
удара
1017.6 1004.6
15 16.09 В 2 25 км ясно +33.5 +14.0 31 +35 +40 душно 1015.7 1002.8
18 16.09 В 3 25 км ясно +28.2 +17.1 51 +32 +32 душно 1016.2 1003.0 +34.2
21 16.09 ЮВ 1-3
{7}
н/о н/о +25.4 +17.1 60 +29 +29 душно 1017.8 1004.5
00 17.09 Ю 2-3
{7}
н/о н/о +23.7 +16.0 62 +27 +27 жарко 1017.2 1003.8
03 17.09 Ю 2-4
{4}
н/о н/о +22.9 +15.2 62 +27 +27 душно 1016.0 1002.6
06 17.09 Ю 2 25 км ясно +22.9 +15.5 63 +27 +28 душно 1016.8 1003.4 +22.1
09 17.09 Ю 2 25 км ясно +30.8 +14.4 37 +33 +43 душно 1016.9 1003.8
12 17.09 В 2 25 км ясно +34.8 +15.7 32 +37 +52 опасность
солнечного
удара
1015.7 1002.8
15 17.09 В 3 25 км ясно +35.8 +16.5 32 +38 +42 очень
душно
1013.7 1000.9
18 17.09 ЮВ 3 25 км 8/0
[Ac cast Ci sp]
+29.1 +19.1 55 +35 +35 очень
душно
1014.6 1001.5 +36.8
21 17.09 ЮВ 3-5
{6}
н/о н/о +26.5 +19.4 65 +32 +32 очень
душно
1015.5 1002.3
00 18.09 Ю 1-3
{6}
н/о н/о +24.7 +18.4 68 +29 +29 душно 1015.2 1001.9
03 18.09 ЮВ 2-3
{5}
н/о н/о +23.5 +17.5 69 +27 +27 душно 1014.4 1001.1
06 18.09 З 1 10 км 8/3 800 м
[Cu med, cong Ac cast Ci sp]
+23.7 +17.0 66 +27 +28 жарко 1015.3 1002.0 +23.2
09 18.09 З 3 15 км 8/3 800 м
[Cu med, cong Ac cast Ci sp]
+33.1 +17.7 40 +37 +41 очень
душно
1016.1 1003.2
12 18.09 штиль 0 15 км {дождь} 8/4 800 м
[Cu med, cong Ac cast Ci sp]
+33.6 +17.3 38 +37 +45 очень
душно
1015.3 1002.4 0.0
15 18.09 Ю 2 25 км 4/0
[Ac cast Ci sp]
+36.0 +15.7 30 +38 +42 очень
душно
1013.8 1001.0
18 18.09 В 2 25 км 4/0
[Ac cast Ci sp]
+31.6 +18.6 46 +36 +36 очень
душно
1014.0 1001.0 +36.9
21 18.09 ЮВ 2-3
{4}
н/о н/о +28.5 +18.3 54 +33 +33 очень
душно
1015.7 1002.6
00 19.09 штиль 0
{9}
н/о н/о +26.9 +21.9 74 +35 +35 очень
душно
1015.8 1002.6

 

Местоположение метеостанции Меденин (Тунис): широта 33.35 долгота 10.48 высота над уровнем моря 117 м.

В архиве по умолчанию представлена погода в Меденине за последнюю неделю. Архивные данные за месяц целиком и за предыдущие месяцы, начиная с января 2011 года, Вы можете получить, выбрав интересующий диапазон дат из раскрывающегося списка и нажав кнопку "Ввод!".


*Определитесь, кто Вы:
робот инопланетянин человек

Внимание! Время в таблицах - всемирное. Для получения местного времени необходимо прибавить поправку, которая равна 1 ч.

Смотрите также архив погоды в соседних городах и на ближайших метеорологических станциях:

Погода в Татуине (Тунис) (48 км)
Погода в Аэропорту Джерба-Зарзис (Тунис) (64 км)
Погода в Габесе (Тунис) (67 км)
Погода в Ремаде (Тунис) (115 км)
Погода в Кебили (Тунис) (145 км)
Погода в Сфаксе (Тунис) (153 км)
Погода в Зуваре (Ливия) (158 км)
Погода в Налуте (Ливия) (171 км)
Погода в Гафсе (Тунис) (194 км)
Погода в Сиди Бузид (Тунис) (205 км)

Пояснения к столбцам:

Ветер - указаны скорость ветра в м/с - средняя за 10 мин, порывы в срок и между сроками (в фигурных скобках) и направление, откуда дует ветер: С - северный, СВ - северо-восточный, В - восточный, ЮВ - юго-восточный, Ю - южный, ЮЗ - юго-западный, З - западный, СЗ - северо-западный.
Видимость - горизонтальная дальность видимости в метрах или километрах. При видимости от 1 до 10 км при отсутствии осадков обычно наблюдается дымка, при ухудшении видимости до 1 км и менее - туман. В сухую погоду видимость может ухудшаться дымом, пылью или мглою.
Явления - указаны атмосферные явления, наблюдавшиеся в срок или в последний час перед сроком; фигурными скобками обозначены явления, наблюдавшиеся между сроками (за 1-3 часа до срока); квадратными скобками обозначены град или гололедные отложения с указанием их диаметра в мм.
Облачность - указаны через наклонную черту общая и нижняя облачность в баллах и высота нижней границы облаков в метрах; квадратными скобками обозначены формы облаков: Ci - перистые, Cs - перисто-слоистые, Cc - перисто-кучевые, Ac - высококучевые, As - высокослоистые, Sc - слоисто-кучевые, Ns - слоисто-дождевые, Cu - кучевые, Cb - кучево-дождевые. Подробнее классификацию облаков см. в Атласе облаков (PDF).
T - Температура воздуха - температура, измеренная на высоте 2 м над землей.
Td - Температура точки росы - температура, при понижении до которой содержащийся в воздухе водяной пар достигнет насыщения.
f - Относительная влажность воздуха - влажноcть воздуха, измеренная на высоте 2 м над землей.
Te - Эффективная температура - температура, которую ощущает одетый по сезону человек в тени. Характеристика душности погоды. При расчете учитывается влияние влажности воздуха и скорости ветра на теплоощущения человека.
Tes - Эффективная температура на солнце - температура, которую ощущает человек, с поправкой на солнечный нагрев. Характеристика знойности погоды. Зависит от высоты солнца над горизонтом, облачности и скорости ветра. Ночью, в пасмурную погоду, а также при ветре 12 м/с и более поправка равна нулю.
P - Атмосферное давление - приведенное к уровню моря атмосферное давление.
Po - Атмосферное давление - измеренное на уровне метеостанции атмосферное давление.
Tmin - Минимальная температура - минимум температуры воздуха на высоте 2 м над землей.
Tmax - Максимальная температура - максимум температуры воздуха на высоте 2 м над землей.
R - Количество осадков - Количество выпавших осадков за период времени, мм. При наведении курсора мыши на число - период времени, за который выпало указанное количество осадков.
R24 - Количество осадков - Количество выпавших осадков за 24 часа, мм.
S - Снежный покров - Высота снежного покрова, см. При наведении курсора мыши на число - состояние снежного покрова и степень покрытия местности в баллах.